{"data":{"norad_id":64553,"intl_designator":"2025-135AB","name":"CONNECTA IOT-12","alt_names":[],"object_type":"PAYLOAD","status":"ACTIVE","operator":null,"country":"TURK","launch_date":"2025-06-23","launch_site_code":"AFWTR","launch_vehicle":null,"mission":null,"orbit_class":"UNKNOWN","rcs_meters":null,"size_class":null,"mass_kg":null,"dimensions":null,"purposes":[],"wikipedia_slug":null,"has_3d_model":false,"image_url":null,"decayed_at":null,"tle_current":{"epoch":"2026-05-25T01:08:22.317792Z","epoch_age_seconds":74433,"freshness":"FRESH","line1":"1 64553U 25135AB  26145.04748053  .00003092  00000+0  14356-3 0  9993","line2":"2 64553  97.4717 260.7466 0002635 107.1132 253.0392 15.20765695 51356","mean_motion":15.20765695,"eccentricity":0.0002635,"inclination_deg":97.4717,"raan_deg":260.7466,"arg_perigee_deg":107.1132,"mean_anomaly_deg":253.0392,"bstar":0.00014356,"rev_number":5135,"period_min":94.689142761075,"perigee_km":501.71641056291,"apogee_km":505.34304892949,"semimajor_km":6881.6667297462,"source":"CELESTRAK","updated_at":"2026-05-25T13:38:04.614200Z"}}}